sat.trackr.live / text

‹ back to catalog

COSMOS 2583

NORAD 62904 · 2025-026C

PAYLOAD ACTIVE UNKNOWN

§ Identity

Operator
Country
CIS
Launch date
2025-02-05
Launch site
PLMSC
Launch vehicle
Mass (kg)
RCS (m²)

External: N2YO · Heavens-Above · Gunter

§ Orbital elements

Epoch: 2026-09-22T17:36:41.698080Z

Period
96.31 min
Inclination
81.9983°
Eccentricity
0.0011536
Mean motion
14.95178448 rev/d
Perigee alt
573.8 km
Apogee alt
589.8 km
Semi-major
6,960.0 km
B*
1.0994e-4
RAAN
334.9522°
Arg perigee
93.6386°
Mean anomaly
266.6153°
Rev number
8,877

§ Raw data

COSMOS 25831 62904U 25026C   26265.73381595  .00001232  00000+0  10994-3 0  99912 62904  81.9983 334.9522 0011536  93.6386 266.6153 14.95178448 88770

JSON: /api/v1/satellites/62904 · /tle

For live sub-satellite position, see the globe view (requires WebGL).

§ Visibility from observer

Set your observer location to see the next 7 days of passes ≥ 10°. The values pass through the URL so the page stays shareable.

No JS? Fill the form by hand. The geolocation button needs JavaScript.

§ Radio — SatNOGS DB

ModeDescriptionDownlinkUplink
FM S-band telemetry 2.280 GHz

1 transmitter · refreshed weekly from db.satnogs.org